Probability
11 11 12 14 14 9 5 4 3 4 5 6 6 4 3 3 3 3 1 0 1 2 2 2 2 2 1 1 1 0 0 1 0 0 0 0 0 0 0 0 0 0 0
14 15 17 18 16 12 8 6 5 4 4 5 5 4 3 3 3 3 2 1 1 2 3 3 3 3 2 2 2 1 1 1 0 0 0 0 0 0 0 0 0 0 0
18 20 23 25 24 20 15 12 10 8 6 5 5 4 3 3 3 3 3 1 1 3 3 3 3 3 4 4 4 3 2 2 1 1 1 1 0 0 0 0 0 0 0
21 24 29 34 33 28 24 19 15 13 11 7 5 4 3 3 3 3 3 3 3 3 3 3 3 4 5 5 5 5 5 4 3 2 1 0 0 0 0 0 0 0 0
25 28 34 38 36 32 28 22 17 14 12 10 7 4 4 3 3 3 3 3 3 3 3 3 3 3 4 4 4 4 5 5 5 3 1 0 0 0 0 0 0 0 0
35 36 38 38 35 31 28 23 18 14 12 12 9 5 5 4 2 1 1 2 3 4 4 4 4 3 2 2 2 1 2 4 5 4 2 2 2 1 0 0 0 0 0
47 45 41 38 35 31 27 23 19 16 14 13 11 7 6 4 2 0 0 1 3 4 6 6 5 4 4 3 2 1 2 2 3 4 4 4 4 3 2 2 0 0 0
51 49 45 41 38 34 29 24 21 19 17 16 14 11 9 6 2 0 0 0 1 3 5 6 7 6 5 4 4 4 4 4 2 2 3 4 4 4 4 3 1 0 0
49 48 44 40 37 33 29 25 23 20 18 16 14 14 13 9 3 0 0 0 0 2 4 4 5 5 3 2 4 6 8 7 4 1 1 1 2 2 2 2 1 0 0
43 41 36 32 30 29 28 28 24 19 16 14 13 14 16 13 6 1 0 0 0 1 3 3 2 2 1 0 2 5 8 7 6 5 4 3 2 1 1 1 1 0 0
30 28 24 20 18 20 25 28 24 18 15 13 14 15 18 16 8 1 0 0 0 0 2 3 2 1 0 0 1 2 4 4 5 6 6 7 6 5 4 4 4 3 2
15 15 14 11 9 11 17 21 21 18 14 12 12 14 17 16 8 2 0 0 0 0 1 2 2 1 0 0 0 0 0 1 2 3 4 6 8 9 10 10 9 8 8
8 9 9 8 7 8 10 14 16 15 11 8 9 10 13 13 9 4 1 0 0 0 0 1 1 0 0 0 0 0 0 0 0 0 1 4 7 11 13 13 12 12 11
6 7 8 8 9 10 12 12 13 12 10 9 9 9 11 13 10 6 2 1 1 1 1 1 0 0 0 0 0 0 1 1 0 0 2 5 9 11 12 11 11 10 8
3 4 6 6 7 9 10 11 9 9 8 8 8 8 9 9 7 3 1 1 1 2 2 1 0 0 1 1 2 3 4 4 3 4 6 11 13 13 11 10 9 7 5
2 2 3 3 3 4 5 6 5 4 3 3 3 3 4 3 2 0 0 0 1 1 1 1 0 0 2 4 6 7 6 7 10 12 13 16 16 13 12 10 9 8 6
2 2 2 2 2 1 2 3 2 1 1 0 0 0 0 0 0 0 0 0 0 0 0 0 0 1 2 5 6 5 5 9 15 18 18 17 14 11 8 7 6 6 6
1 1 2 2 2 2 2 2 2 2 1 0 0 0 0 0 0 0 0 0 0 0 0 0 1 2 3 4 3 2 3 7 13 16 15 13 11 8 5 3 2 2 2
0 0 1 1 1 1 1 1 1 1 1 0 0 0 0 0 0 0 0 0 0 0 0 0 2 3 3 2 0 1 2 5 8 9 8 8 7 5 3 2 0 0 0
0 0 0 0 0 0 0 0 0 0 0 0 0 0 0 0 0 0 0 0 0 0 0 0 1 2 2 1 0 0 1 2 4 5 5 5 4 2 1 1 0 0 0
0 0 0 0 0 0 0 0 0 0 0 0 0 0 0 0 0 0 0 0 0 0 1 0 0 1 1 0 0 0 0 1 1 2 3 2 1 0 0 0 0 0 0
0 0 0 0 0 0 0 0 0 0 0 0 0 0 0 0 0 0 0 0 0 0 0 0 0 0 0 0 0 0 0 0 0 0 0 0 0 0 0 0 0 1 1
0 0 0 0 0 0 0 0 0 0 0 0 0 0 0 0 0 0 0 0 0 0 0 0 0 0 0 0 0 1 0 0 0 0 0 0 0 0 0 0 0 0 0
0 0 0 0 0 0 0 0 0 0 0 0 0 0 0 0 0 0 0 0 0 0 0 0 0 0 0 0 0 0 0 0 0 0 0 0 0 0 0 0 0 0 0
0 0 0 0 0 0 0 0 0 0 0 0 0 0 0 0 0 0 0 0 0 0 0 0 0 0 0 0 0 0 0 0 0 0 0 0 0 0 0 0 0 0 0
0 0 0 0 0 0 0 0 0 0 0 0 0 0 0 0 0 0 0 0 0 0 0 0 0 0 0 0 0 0 0 0 0 0 0 0 0 0 0 0 0 0 0
Wind_Speed
14 13 12 11 11 10 9 9 8 8 8 8 8 8 8 7 7 7 7 6 7 6 6 6 7 6 5 5 5 5 5 6 8 7 6 5 5 8 7 7 8 8 8
14 13 13 11 11 11 11 10 10 9 9 9 8 8 8 8 8 8 8 7 8 8 7 7 7 6 7 7 6 6 6 6 8 9 8 7 7 7 8 8 9 8 9
14 14 13 13 12 12 11 10 10 10 9 9 9 9 9 9 9 9 8 8 8 8 8 8 8 8 8 7 7 7 7 7 7 9 9 7 7 7 8 9 10 8 10
14 14 14 13 13 12 11 11 10 10 10 10 10 10 10 10 10 9 9 9 9 9 9 9 9 9 9 9 8 9 8 8 8 9 9 8 7 7 7 8 8 7 8
13 13 13 12 12 11 11 11 11 10 10 10 10 10 10 9 9 10 9 10 10 10 10 10 11 10 8 8 8 8 8 8 8 8 9 8 8 6 7 7 8 8 8
12 12 12 11 11 11 11 11 10 10 10 10 10 11 11 9 7 8 9 10 10 11 11 11 11 11 12 14 14 13 12 11 11 10 9 9 9 9 7 8 8 9 9
12 12 12 12 12 11 11 11 10 10 10 10 11 11 11 10 8 10 12 11 11 11 11 11 11 10 11 12 14 17 17 18 16 14 14 13 11 10 9 10 9 10 10
11 11 11 11 11 10 10 10 10 9 9 9 10 11 11 10 11 12 12 13 13 13 13 13 13 13 12 12 12 13 14 14 15 15 14 14 13 10 9 11 11 11 12
9 9 10 10 10 10 10 10 9 9 9 9 10 10 11 10 11 12 12 11 12 14 14 14 14 14 12 11 13 15 15 13 14 15 15 14 12 10 9 10 11 11 12
6 6 7 7 8 9 9 8 8 8 9 9 9 10 11 11 9 12 12 10 12 12 12 13 15 16 14 13 14 15 16 14 13 11 13 15 16 16 16 14 13 12 12
3 4 5 5 6 6 6 6 6 7 7 8 9 9 10 10 9 11 13 10 11 12 11 11 11 14 17 16 16 15 15 13 13 13 12 13 12 12 13 14 14 13 13
3 3 3 3 3 3 4 4 5 6 7 8 8 9 8 8 9 9 12 14 13 12 12 12 10 8 12 15 15 15 15 12 12 13 12 12 12 11 11 12 13 14 13
3 2 2 2 1 2 3 4 5 5 6 6 6 7 7 6 6 10 12 14 15 12 12 14 13 11 10 12 17 17 15 13 13 14 14 13 12 11 10 9 12 13 15
4 3 2 1 1 1 2 3 4 4 5 6 6 7 7 7 6 5 6 7 10 12 12 13 14 16 15 15 13 13 13 14 14 14 14 13 11 11 11 11 11 11 12
4 3 2 2 1 1 1 2 3 3 3 5 7 7 8 8 6 7 7 9 9 9 10 11 12 12 12 12 13 13 13 13 14 14 14 13 12 12 11 11 10 11 12
4 3 2 2 2 2 2 2 2 4 3 5 7 8 7 8 9 10 11 12 13 12 10 13 14 14 14 14 13 12 12 12 13 13 13 13 12 12 11 11 11 11 12
5 4 4 4 3 3 4 4 4 4 7 9 10 10 11 11 12 13 13 13 14 11 11 13 14 14 13 13 12 12 12 11 11 11 12 12 12 11 11 11 10 11 11
4 3 3 3 4 4 4 5 6 7 7 6 6 9 10 11 13 14 13 11 11 10 11 12 13 12 12 12 12 12 12 11 10 11 11 12 11 12 12 11 10 12 11
4 4 4 5 5 5 6 6 6 7 8 8 8 6 6 9 12 13 10 9 11 11 10 10 11 11 11 11 11 10 11 10 11 10 11 12 11 11 11 11 11 11 11
3 2 4 6 6 6 6 7 7 8 8 9 9 9 8 10 10 10 9 9 10 10 10 10 10 10 10 10 9 9 10 10 10 10 11 10 10 10 11 12 11 10 10
6 4 4 6 6 6 7 8 8 8 9 9 9 8 8 11 12 12 11 10 10 10 10 10 10 10 9 8 8 9 10 9 9 10 9 9 10 9 9 10 10 10 10
7 7 7 7 7 7 8 9 9 9 10 11 10 9 7 9 10 10 11 11 11 10 10 9 9 9 8 8 8 8 9 9 9 8 8 8 8 8 9 9 9 9 10
8 8 8 8 7 7 8 9 9 9 10 10 10 10 10 9 10 11 11 11 10 10 9 9 9 9 8 7 8 8 8 8 7 6 7 8 8 8 8 9 11 11 11
8 8 9 8 8 8 8 9 9 10 10 10 10 10 10 10 10 12 12 11 10 10 9 9 9 10 12 9 7 6 5 5 6 6 8 8 8 8 7 8 9 10 10
8 8 8 8 8 8 8 9 9 10 10 9 9 9 10 10 10 11 11 10 12 10 11 10 8 9 10 10 9 6 4 4 5 7 7 7 9 9 8 9 8 10 10
8 8 8 7 7 8 8 8 9 9 9 9 9 9 9 10 10 10 10 10 10 10 9 8 9 10 11 8 7 6 3 3 4 5 7 8 9 9 9 8 10 10 11
Wind_Direction
196 196 197 195 195 194 195 194 194 196 194 200 201 203 204 205 205 214 235 219 227 233 233 234 241 261 264 263 254 257 260 267 277 285 288 286 278 281 292 286 276 270 256
195 194 196 195 195 197 197 197 195 197 200 203 205 207 210 211 210 216 226 227 230 235 237 238 243 241 242 258 263 263 263 267 271 282 287 284 277 275 274 278 276 270 274
193 194 195 196 196 200 200 197 197 200 205 207 209 213 216 216 216 220 226 231 234 237 239 240 243 245 246 249 251 260 263 259 262 273 278 283 279 273 276 270 268 266 271
193 194 195 197 197 197 196 195 198 201 205 210 213 218 220 220 222 224 226 230 235 239 240 242 244 244 245 249 248 249 257 266 263 264 270 274 271 269 266 270 271 257 260
195 198 198 196 195 195 195 196 198 203 208 211 217 221 222 223 224 225 230 231 233 239 241 241 243 244 252 252 259 257 256 257 264 266 269 271 272 276 274 277 280 281 269
195 199 195 190 190 193 194 196 199 204 212 213 219 224 225 228 204 208 235 246 242 242 245 245 245 230 230 228 240 251 259 259 263 270 271 273 276 276 276 277 279 278 277
195 196 190 190 191 193 194 197 201 205 209 216 222 227 232 232 199 204 219 244 250 249 249 248 250 247 229 237 228 226 237 241 246 257 267 270 275 272 275 273 269 275 281
193 194 191 190 191 190 196 201 205 209 214 220 226 231 235 232 203 209 214 234 249 251 250 249 250 255 247 243 248 244 242 236 231 233 248 257 261 269 266 266 273 270 265
192 192 192 190 190 191 198 204 206 212 219 223 227 233 238 239 210 211 215 240 243 247 249 249 249 250 243 227 244 253 254 253 241 232 239 250 260 262 260 263 262 263 265
185 185 185 188 193 197 202 207 209 217 227 233 233 234 239 243 219 207 211 244 251 253 251 249 242 242 244 218 237 248 253 254 258 246 228 234 243 242 228 237 251 257 263
162 166 172 182 199 205 205 207 214 221 231 240 245 243 243 246 233 210 208 240 257 261 262 258 254 220 223 223 230 245 251 258 262 259 253 245 239 239 233 226 232 246 257
117 139 153 170 203 203 206 213 220 232 235 238 244 252 250 242 239 228 215 227 251 264 267 268 270 242 221 223 228 241 244 247 254 255 253 250 246 242 239 236 233 237 246
89 102 117 137 174 221 223 223 226 227 248 253 253 257 260 258 241 223 224 229 235 248 264 270 276 273 252 241 236 235 233 237 243 247 248 249 249 250 249 242 239 238 244
75 72 83 109 157 187 243 248 256 256 259 268 272 274 276 272 270 271 261 249 239 245 258 264 254 248 246 256 256 232 231 239 242 245 248 249 250 247 241 242 243 241 242
65 63 62 72 56 281 260 296 288 300 318 296 296 295 293 290 317 343 312 296 297 302 302 278 269 262 253 247 244 242 239 235 234 240 246 248 247 246 245 243 244 246 248
49 39 27 17 12 325 314 288 220 252 257 250 257 272 290 290 300 298 289 280 275 276 277 269 267 265 262 260 257 253 245 242 241 241 241 243 244 245 245 242 240 241 246
34 21 6 1 354 338 329 317 308 266 233 238 241 242 250 271 278 279 278 278 270 254 253 259 262 264 264 263 260 258 256 252 245 242 243 243 243 244 244 243 242 242 244
14 29 351 345 339 331 325 315 310 310 307 297 256 232 238 252 262 266 269 275 270 246 254 262 267 269 268 267 266 264 261 258 250 246 245 245 243 243 242 241 240 242 246
349 352 350 335 320 319 317 311 308 308 305 305 306 290 252 260 256 254 250 267 282 284 281 279 277 277 275 273 270 267 265 262 259 254 249 246 243 242 242 243 243 242 244
321 323 304 310 311 313 311 310 309 307 304 302 302 307 315 310 303 297 285 287 288 288 287 284 283 280 278 274 270 267 263 260 259 254 251 247 243 241 242 244 246 246 243
322 319 281 292 307 316 315 310 308 304 302 303 304 312 321 303 299 300 300 297 294 294 292 288 286 283 277 273 270 266 263 261 259 257 253 248 243 241 242 244 246 247 248
312 314 316 317 317 315 315 308 304 303 305 305 306 306 295 291 299 303 303 301 297 294 292 292 289 286 282 278 275 271 265 262 260 261 261 255 248 247 248 248 247 248 248
302 310 312 312 310 310 297 301 307 310 309 308 309 310 310 309 308 307 305 304 302 298 293 287 285 285 285 283 279 275 272 272 274 276 274 267 260 255 250 249 250 252 251
309 312 312 314 314 313 314 313 311 311 311 313 313 312 313 313 311 310 308 307 306 303 299 296 292 288 287 283 280 279 288 298 294 282 277 275 270 263 256 255 257 258 259
315 319 317 316 316 315 314 313 314 316 316 316 314 314 315 314 314 314 316 315 313 310 311 311 305 301 298 295 293 301 334 328 306 299 283 273 270 268 264 263 263 264 261
321 320 319 320 321 320 318 317 317 318 319 319 318 317 317 316 316 318 317 317 318 317 315 311 309 310 311 308 323 345 336 305 291 288 284 276 271 266 264 260 261 260 262